Location: Audinghen
(50.8518°N, 1.6129°E)
Time: 21:25:21
(UTC+00:00)

Cosmos 968 Rocket - Pass Details

Date: 07 August 2020
Orbit: 740 x 771 km, 74.0° (Epoch: 21 September)

Event Time Altitude Azimuth Distance (km) Brightness Sun altitude
Exits shadow 00:19:12 60° 180° (S) 851 3.3 -22.7°
Maximum altitude 00:20:06 78° 112° (ESE) 763 3.3 -22.7°
Drops below altitude 10° 00:25:14 10° 27° (NNE) 2,268 6.9 -22.6°
Sets 00:27:37 0° 26° (NNE) 3,199 8.0 -22.5°
